sat.trackr.live / text

‹ back to catalog

STARLINK-36409

NORAD 67406 · 2026-005C

PAYLOAD ACTIVE UNKNOWN

§ Identity

Operator
Country
US
Launch date
2026-01-12
Launch site
AFETR
Launch vehicle
Mass (kg)
RCS (m²)

Purposes: comms

External: N2YO · Heavens-Above · Gunter

§ Orbital elements

Epoch: 2026-05-25T01:15:44.106048Z

Period
94.27 min
Inclination
42.9976°
Eccentricity
0.0000311
Mean motion
15.27590546 rev/d
Perigee alt
482.8 km
Apogee alt
483.2 km
Semi-major
6,861.2 km
B*
7.5601e-4
RAAN
166.8676°
Arg perigee
187.6547°
Mean anomaly
172.4300°
Rev number
2,037

§ Raw data

STARLINK-364091 67406U 26005C   26145.05259382  .00020607  00000+0  75601-3 0  99942 67406  42.9976 166.8676 0000311 187.6547 172.4300 15.27590546 20378

JSON: /api/v1/satellites/67406 · /tle

For live sub-satellite position, see the globe view (requires WebGL).

§ Visibility from observer

Set your observer location to see the next 7 days of passes ≥ 10°. The values pass through the URL so the page stays shareable.

No JS? Fill the form by hand. The geolocation button needs JavaScript.